Погода в Лоуди

Китай     27°44′13″N   111°59′34″E
темп.,
°C
ветер,
м/с
пор.,
м/с
влажн.,
%
обл.,
%
осадки,
мм/ч
давл.,
гПа
погр.,
м
24 января, пн
пн2423:00+4с1288100 0.7 1024355
02:00+4св128896 0.8 1024329
05:00+3св2290100 0.0 1023382
08:00+3св1290100 0.0 1024382
11:00+4ссв1292100 1.1 1025358
14:00+3с1294100 3.6 1023360
17:00+4всв1289100 0.1 1023331
20:00+3в129195 0.1 1024249
25 января, вт
вт2523:00+3всв129099 0.0 1025235
02:00+3св1390100 0.1 1024254
05:00+3в1294100 1.6 1022242
08:00+3в1294100 3.6 1024196
11:00+4св1292100 1.0 1025286
14:00+4св1291100 1.6 1022327
17:00+4всв2391100 0.4 1021360
20:00+4всв2393100 1.8 1023306
26 января, ср
ср2623:00+4всв2394100 0.6 1023246
02:00+4св1293100 1.4 1023188
05:00+4ссз1295100 1.2 1022151
08:00+4св019598 2.3 1023137
11:00+5ссв0192100 0.7 1024252
14:00+6с1288100 0.9 1021349
17:00+6ссв1391100 0.3 1021348
20:00+5св1394100 0.9 1023182
27 января, чт
чт2723:00+6ссв1493100 0.2 1023240
02:00+6ссз2493100 0.4 1023250
05:00+5с1392100 0.3 1022250
08:00+5с2588100 0.3 1024424
11:00+5с2486100 0.4 1026455
14:00+5с3484100 0.5 1023569
17:00+4с2587100 0.3 1024496
20:00+4ссв3688100 0.6 1026527
28 января, пт
пт2823:00+3с2690100 0.3 1026484
02:00+2сз2496100 2.6 1026301
05:00+2с2591100 1.0 1025435
08:00+2с2593100 3.0 1027433
11:00+3с2583100 0.4 1028749
14:00+3ссз3584100 0.6 1026667
17:00+2с3687100 0.1 1025587
20:00+2с2690100 0.6 1027529